User: anonymous   Login
Location: Unspecified
(0.0000°N, 0.0000°E)
Time: 20:08:45
(UTC+00:00)
Language:

STARLINK-4450 - Orbit

View from above orbital plane
View from above orbital plane
View from above satellite
View from above satellite

Ground track
Ground track

The orbit is defined by the following mean orbital elements,

1 53491U          26145.66668980 +.00000000 +00000-0 +97957-2 0 00001
2 53491  97.6053 268.0648 0001212  85.5583 302.4924 15.47802281    00
Epoch (UTC): 25 May 2026 16:00:01
Eccentricity: 0.0001212
inclination: 97.6053°
perigee height: 422 km
apogee height: 424 km
right ascension of ascending node: 268.0648°
argument of perigee: 85.5583°
revolutions per day: 15.47802281
mean anomaly at epoch: 302.4924°

The dashed part of the orbit path shows where the satellite is in the earth's shadow,  

DLR